This demonstration page uses our WeatherBlox Daily Observations layout. Learn more.

Left ArrowRight Arrow

39.95238, -75.16362

Hourly Observations for February 1, 2022

Temp ( °F °C ) Dew Point ( °F °C ) Humidity (%) Winds ( mph kmh ) Pressure ( in mb ) Visibility ( mi km ) Precip ( " mm )
12:54 am 00:54 Clear 24 -4.4 11 -11.7 57 57 NE 6 9 30.44 1031 10 16 0.00 0.00
1:54 am 01:54 Clear 25 -3.9 13 -10.6 60 60 NNE 3 6 30.46 1031 10 16 0.00 0.00
2:54 am 02:54 Clear 24 -4.4 11 -11.7 57 57 NE 3 6 30.47 1032 10 16 0.00 0.00
3:54 am 03:54 Clear 24 -4.4 11 -11.7 57 57 NE 3 6 30.46 1032 10 16 0.00 0.00
4:54 am 04:54 Clear 24 -4.4 11 -11.7 57 57 NNE 6 9 30.47 1032 10 16 0.00 0.00
5:54 am 05:54 Clear 24 -4.4 10 -12.2 55 55 NNE 3 6 30.49 1033 10 16 0.00 0.00
6:54 am 06:54 Clear 25 -3.9 11 -11.7 55 55 NNE 7 11 30.53 1034 10 16 0.00 0.00
7:54 am 07:54 Mostly Sunny 25 -3.9 13 -10.6 60 60 NE 6 9 30.53 1034 10 16 0.00 0.00
8:54 am 08:54 Mostly Sunny 27 -2.8 14 -10 58 58 NE 9 15 30.54 1034 10 16 0.00 0.00
9:54 am 09:54 Partly Cloudy 30 -1.1 16 -8.9 56 56 NE 7 11 30.55 1035 10 16 0.00 0.00
10:54 am 10:54 Mostly Cloudy 33 0.6 19 -7.2 56 56 ENE 9 15 30.54 1034 10 16 0.00 0.00
11:54 am 11:54 Mostly Cloudy 36 2.2 21 -6.1 55 55 NE 7 11 30.53 1034 10 16 0.00 0.00
12:54 pm 12:54 Mostly Cloudy 37 2.8 21 -6.1 52 52 ENE 6 9 30.51 1033 10 16 0.00 0.00
1:54 pm 13:54 Mostly Cloudy 38 3.3 23 -5 55 55 NE 7 11 30.50 1033 10 16 0.00 0.00
2:54 pm 14:54 Mostly Cloudy 39 3.9 24 -4.4 55 55 ENE 7 11 30.48 1032 10 16 0.00 0.00
3:54 pm 15:54 Mostly Cloudy 40 4.4 24 -4.4 53 53 E 6 9 30.47 1032 10 16 0.00 0.00
4:54 pm 16:54 Partly Cloudy 37 2.8 25 -3.9 62 62 ENE 3 6 30.47 1032 10 16 0.00 0.00
5:54 pm 17:54 Partly Cloudy 35 1.7 25 -3.9 67 67 NE 5 7 30.49 1032 10 16 0.00 0.00
6:54 pm 18:54 Mostly Clear 35 1.7 25 -3.9 67 67 E 7 11 30.51 1033 10 16 0.00 0.00
7:54 pm 19:54 Partly Cloudy 33 0.6 25 -3.9 72 72 E 6 9 30.53 1034 10 16 0.00 0.00
8:54 pm 20:54 Partly Cloudy 32 0 24 -4.4 73 73 E 5 7 30.53 1034 10 16 0.00 0.00
9:54 pm 21:54 Partly Cloudy 30 -1.1 24 -4.4 79 79 Calm 30.52 1034 10 16 0.00 0.00
10:54 pm 22:54 Mostly Clear 29 -1.7 23 -5 78 78 NE 3 6 30.50 1033 10 16 0.00 0.00
11:54 pm 23:54 Mostly Clear 28 -2.2 22 -5.6 78 78 NNE 3 6 30.50 1033 10 16 0.00 0.00

Powered by AerisWeather